Location: East Guldeford
(50.9500°N, 0.7500°E)
Time: 09:12:46
(UTC+00:00)

Intercosmos 24 - Pass Details

Date: 12 May 2021
Orbit: 499 x 2378 km, 82.6° (Epoch: 16 June)

Event Time Altitude Azimuth Distance (km) Brightness Sun altitude
Rises 20:27:25 0° 197° (SSW) 2,684 7.1 -7.3°
Reaches altitude 10° 20:29:35 10° 200° (SSW) 1,731 6.1 -7.6°
Maximum altitude 20:33:08 62° 283° (WNW) 570 4.2 -8.0°
Drops below altitude 10° 20:36:52 10° 5° (N) 1,816 7.0 -8.4°
Sets 20:39:11 0° 9° (N) 2,835 8.0 -8.7°
